DG9LAO-6 Weather Reports


time (UTC)temp
C
wind
direction
speed
KPH
gust
KPH
rain 1hr
cm
rain 24hr
cm
rain mn
cm
humidity
%
barometer
mb
20260502121910 23 360 0.0 0.0 0.00 0.00 0.00 52 1018.8
20260502062911 15 360 0.0 0.0 0.00 0.00 0.00 79 1017.2
20260502051917 11 360 0.0 0.0 0.00 0.00 0.00 84 1019.4
20260502051909 11 360 0.0 0.0 0.00 0.00 0.00 84 1017.3
20260502044916 10 360 0.0 0.0 0.00 0.00 0.00 86 1019.8
20260502044909 10 360 0.0 0.0 0.00 0.00 0.00 86 1017.4
20260502035909 8 360 0.0 0.0 0.00 0.00 0.00 84 1017.6
20260502025912 9 360 0.0 0.0 0.00 0.00 0.00 82 1018.3
20260502022911 9 360 0.0 0.0 0.00 0.00 0.00 82 1018.6
20260502021911 9 360 0.0 0.0 0.00 0.00 0.00 82 1018.6
20260502003910 10 360 0.0 0.0 0.00 0.00 0.00 81 1019.8
20260501223909 11 360 0.0 0.0 0.00 0.00 0.00 77 1021.1
20260501220914 12 360 0.0 0.0 0.00 0.00 0.00 77 1023.2
20260501220909 12 360 0.0 0.0 0.00 0.00 0.00 77 1021.3
20260501213913 12 360 0.0 0.0 0.00 0.00 0.00 75 1023.4
20260501205913 13 360 0.0 0.0 0.00 0.00 0.00 73 1023.8
20260501182911 18 360 0.0 0.0 0.00 0.00 0.00 64 1024.4
20260501161912 21 360 0.0 0.0 0.00 0.00 0.00 54 1023.6
20260501160911 21 360 0.0 0.0 0.00 0.00 0.00 54 1025.8
20260501143911 21 360 0.0 0.0 0.00 0.00 0.00 53 1025.1